TimeEDT,TemperatureF,Dew PointF,Humidity,Sea Level PressureIn,VisibilityMPH,Wind Direction,Wind SpeedMPH,Gust SpeedMPH,PrecipitationIn,Events,Conditions,WindDirDegrees,DateUTC
12:15 AM,39.2,33.8,81,29.48,8.0,WNW,9.2,-,0.01,Rain,Light Rain,290,2011-04-02 04:15:00
12:24 AM,39.2,33.8,81,29.47,6.0,West,10.4,-,0.02,Rain,Light Rain,280,2011-04-02 04:24:00
12:54 AM,39.0,32.0,76,29.47,10.0,WNW,4.6,-,0.03,Rain,Light Rain,300,2011-04-02 04:54:00
1:54 AM,39.0,28.9,67,29.46,10.0,WNW,12.7,-,0.00,,Overcast,300,2011-04-02 05:54:00
2:54 AM,37.9,28.9,70,29.46,10.0,WNW,10.4,-,0.00,Rain,Light Rain,290,2011-04-02 06:54:00
3:54 AM,37.0,27.0,67,29.46,10.0,West,6.9,-,0.00,,Overcast,280,2011-04-02 07:54:00
4:54 AM,36.0,28.0,73,29.47,10.0,West,10.4,-,N/A,,Overcast,280,2011-04-02 08:54:00
5:54 AM,35.1,27.0,72,29.47,10.0,West,10.4,-,N/A,,Mostly Cloudy,270,2011-04-02 09:54:00
6:54 AM,34.0,27.0,75,29.49,10.0,West,10.4,-,N/A,,Scattered Clouds,280,2011-04-02 10:54:00
7:54 AM,36.0,27.0,70,29.50,10.0,WNW,10.4,-,N/A,,Scattered Clouds,290,2011-04-02 11:54:00
8:54 AM,39.9,28.0,63,29.51,10.0,WNW,11.5,-,N/A,,Scattered Clouds,300,2011-04-02 12:54:00
9:54 AM,43.0,27.0,53,29.52,10.0,NW,12.7,-,N/A,,Scattered Clouds,310,2011-04-02 13:54:00
10:54 AM,45.0,27.0,49,29.52,10.0,NW,11.5,-,N/A,,Scattered Clouds,310,2011-04-02 14:54:00
11:54 AM,48.0,27.0,44,29.52,10.0,WNW,13.8,-,N/A,,Mostly Cloudy,300,2011-04-02 15:54:00
12:54 PM,48.9,26.1,41,29.52,10.0,WNW,13.8,20.7,N/A,,Mostly Cloudy,290,2011-04-02 16:54:00
1:54 PM,51.1,24.1,35,29.51,10.0,WNW,15.0,25.3,N/A,,Mostly Cloudy,290,2011-04-02 17:54:00
2:54 PM,53.1,19.9,27,29.51,10.0,NNW,18.4,27.6,N/A,,Mostly Cloudy,330,2011-04-02 18:54:00
3:54 PM,53.1,18.0,25,29.52,10.0,WNW,20.7,29.9,N/A,,Mostly Cloudy,300,2011-04-02 19:54:00
4:54 PM,53.1,17.1,24,29.53,10.0,NW,18.4,28.8,N/A,,Mostly Cloudy,310,2011-04-02 20:54:00
5:54 PM,52.0,18.0,26,29.56,10.0,NW,19.6,29.9,N/A,,Scattered Clouds,320,2011-04-02 21:54:00
6:54 PM,50.0,18.0,28,29.58,10.0,NW,24.2,31.1,N/A,,Scattered Clouds,310,2011-04-02 22:54:00
7:54 PM,46.9,19.9,34,29.61,10.0,NW,13.8,21.9,N/A,,Scattered Clouds,320,2011-04-02 23:54:00
8:54 PM,46.0,21.9,39,29.65,10.0,NW,13.8,-,N/A,,Scattered Clouds,310,2011-04-03 00:54:00
9:54 PM,45.0,23.0,42,29.68,10.0,NW,16.1,23.0,N/A,,Overcast,310,2011-04-03 01:54:00
10:54 PM,44.1,23.0,43,29.70,10.0,NW,17.3,23.0,N/A,,Overcast,310,2011-04-03 02:54:00
11:54 PM,42.1,25.0,51,29.72,10.0,WNW,10.4,-,N/A,,Scattered Clouds,300,2011-04-03 03:54:00